Location: Baumgartsau
(48.4586°N, 14.0864°E)
Time: 14:24:23
(UTC+00:00)

BREEZE M DEB (TANK) - Pass Details

Date: 23 May 2021
Orbit: 296 x 11842 km, 49.5° (Epoch: 22 June)

Event Time Altitude Azimuth Distance (km) Brightness Sun altitude
Rises 18:30:55 0° 292° (WNW) 4,763 9.7 1.5°
Reaches altitude 10° 18:32:56 10° 290° (WNW) 4,284 8.9 1.2°
Maximum altitude 18:46:03 72° 210° (SSW) 4,322 6.9 -0.6°
Drops below altitude 10° 19:49:56 10° 142° (SE) 15,469 8.9 -8.8°
Enters shadow 19:52:31 - 142° (SE) 15,725 9.0 -9.1°
